Regional Weather Roundup
Issued by NWS Northern Indiana

Home | Current Version | Previous Version | Graphics & Text | Print | Product List | Glossary On
Versions: 1 2 3 4 5 6 7 8 9 10 11 12 13 14 15 16 17 18 19 20 21 22 23 24 25 26 27 28 29 30 31 32 33 34 35 36 37 38 39 40 41 42 43 44 45 46 47 48 49 50
000
ASUS43 KIWX 300400
RWRIWX

KIWX WEATHER ROUNDUP
NATIONAL WEATHER SERVICE NORTHERN INDIANA
1200 AM EDT SAT JUL 30 2016

NOTE: "FAIR" INDICATES FEW OR NO CLOUDS BELOW 12,000 FEET WITH NO
SIGNIFICANT WEATHER AND/OR OBSTRUCTIONS TO VISIBILITY.

* THESE STATIONS ARE NOT UNDER NWS QUALITY CONTROL. THEY ALSO MAY NOT
  REPORT WEATHER SUCH AS PRECIPITATION OR FOG.

INZ001>027-300500-
NORTHERN INDIANA

CITY           SKY/WX    TMP DP  RH WIND       PRES   REMARKS
KNOX*          PTCLDY    68  64  88 E5        29.94R
SOUTH BEND     MOCLDY    69  66  90 NE7       29.94F
MONTICELLO*    CLOUDY    70  66  88 CALM      29.92R
WARSAW*        CLEAR     68  66  94 E6        29.93F
ANGOLA*        MOCLDY    68  59  73 E5        29.98S
FORT WAYNE     CLOUDY    69  66  90 NE6       29.95S
PERU/GRISSOM   PTCLDY    68  68 100 NE3       29.92S

$$
INZ028>050-300500-
CENTRAL INDIANA

CITY           SKY/WX    TMP DP  RH WIND       PRES   REMARKS
LAFAYETTE      CLOUDY    69  68  96 E3        29.91S
KOKOMO*        CLEAR     66  63  88 CALM      29.94R VSB 1
MUNCIE*        PTCLDY    70  67  90 CALM      29.94S
INDIANAPOLIS   PTCLDY    73  68  84 E6        29.93F

$$
MIZ043>046-050>051-056>058-064>065-071>073-077>080-300500-
SOUTHWEST LOWER MICHIGAN

CITY           SKY/WX    TMP DP  RH WIND       PRES   REMARKS
BATTLE CREEK   CLOUDY    70  59  68 NE10      29.99S
BENTON HARBOR  PTCLDY    69  64  84 NE7       29.95F
COLDWATER*     HVY RAIN  69  69  99 E3        29.98F
HILLSDALE*     RAIN      68  65  92 SE5       29.99S
HOLLAND        LGT RAIN  67  60  78 E8        29.99F
GRAND RAPIDS   LGT RAIN  65  59  81 E12       30.01S
KALAMAZOO      CLOUDY    71  58  63 VRB3      29.97F
STURGIS*       CLOUDY    67  65  94 E3        29.95F
THREE RIVERS*  MOCLDY    71  65  84 E5        29.96F

$$
OHZ001>008-015>018-024>025-300500-
NORTHWEST OHIO

CITY           SKY/WX    TMP DP  RH WIND       PRES   REMARKS
DEFIANCE       CLOUDY    72  68  87 N5        29.96R
FINDLAY        PTCLDY    73  67  81 E8        29.93F
TOLEDO EXPRESS CLOUDY    72  71  97 NE5       29.95F
TOLEDO METCALF CLOUDY    76  71  85 NE5       29.96F
LIMA           CLOUDY    71  71 100 E8        29.94F

$$
AND FOR LAKE MICHIGAN COASTAL AND OPEN LAKE BUOY OBSERVATIONS

STATION/POSITION TEMP    WIND        PRES    VSBY  WAVE
                 AIR SEA DIR/SP/G                  HT/PER
                 (F)     (DEG/KT/KT) (MB)    (MI)  (FT/S)
CALUMET HARBOR                       1013.2F
MICHIGAN CITY     71      50/ 10/ 10   N/A
BURNS HARBOR      71      70/  8/ 11 1013.9F
SAINT JOSEPH      69      30/  3/  6 1015.2R
SOUTH LAKE BUOY   73 74   70/ 14/ 17 1014.2          3/ 4
4 MI NW BRIDGMAN  72 75   30/ 12/ 16 1013.7R         2
MICHIGAN CITY     75 76   70/ 14/ 17   N/A           3/ 5

$$
&&




USA.gov is the U.S. government's official web portal to all federal, state and local government web resources and services.